TYA412 UOOO-URSS

Flight info

Callsign TYA412
Flight time 6h 13m
Altitude 34000
Route N0460F340 ROLGA W103 GIMIR R238 SORLI W253 UNISO L992 GIMAK M168 AKERA DCT REPSA T764 DILUP M158 EKTEN A122 URL DCT ATR DCT AKT R227 BEMES A944 GUBOR G487 BINOL
Aircraft B738/M-VGDW/C

Departure

Time 2026-04-23 12:35
Airport Alykel International Airport (UOOO)

Arrival

Time 2026-04-23 18:49
Airport Sochi International Airport (URSS)
Time Latitude Longitude Altitude Speed Heading
2026-04-23 12:10 69.32365 87.34245 590 ft 0 kts 302°
2026-04-23 12:27 69.32365 87.34248 590 ft 1 kts 303°
2026-04-23 12:27 69.32357 87.34283 590 ft 2 kts 302°
2026-04-23 12:28 69.32349 87.34315 590 ft 0 kts 303°
2026-04-23 12:28 69.32344 87.34340 590 ft 1 kts 290°
2026-04-23 12:28 69.32342 87.34378 590 ft 2 kts 269°
2026-04-23 12:28 69.32344 87.34417 590 ft 2 kts 249°
2026-04-23 12:29 69.32351 87.34452 590 ft 2 kts 229°
2026-04-23 12:29 69.32359 87.34472 590 ft 0 kts 214°
2026-04-23 12:29 69.32355 87.34466 590 ft 2 kts 215°
2026-04-23 12:29 69.32343 87.34443 590 ft 2 kts 212°
2026-04-23 12:30 69.32330 87.34420 590 ft 2 kts 212°
2026-04-23 12:30 69.32318 87.34397 590 ft 2 kts 212°
2026-04-23 12:30 69.32305 87.34373 590 ft 2 kts 212°
2026-04-23 12:30 69.32292 87.34351 590 ft 2 kts 212°
2026-04-23 12:31 69.32286 87.34339 590 ft 0 kts 211°
2026-04-23 12:32 69.32279 87.34327 590 ft 3 kts 211°
2026-04-23 12:32 69.32248 87.34272 590 ft 7 kts 211°
2026-04-23 12:32 69.32209 87.34202 590 ft 5 kts 212°
2026-04-23 12:33 69.32181 87.34151 590 ft 5 kts 212°
2026-04-23 12:33 69.32135 87.34071 590 ft 8 kts 210°
2026-04-23 12:33 69.32082 87.34063 590 ft 8 kts 150°
2026-04-23 12:33 69.32036 87.34226 590 ft 12 kts 123°
2026-04-23 12:34 69.31982 87.34459 590 ft 14 kts 123°
2026-04-23 12:34 69.31937 87.34621 590 ft 9 kts 159°
2026-04-23 12:34 69.31865 87.34566 590 ft 17 kts 210°
2026-04-23 12:34 69.31570 87.34046 590 ft 82 kts 211°
2026-04-23 12:35 69.30907 87.32858 591 ft 138 kts 210°
2026-04-23 12:35 69.30012 87.31166 823 ft 163 kts 204°
2026-04-23 12:35 69.29105 87.29398 1559 ft 157 kts 202°
2026-04-23 12:35 69.28196 87.27796 2003 ft 158 kts 198°
2026-04-23 12:36 69.27206 87.26164 2272 ft 174 kts 201°
2026-04-23 12:36 69.26135 87.24267 2551 ft 191 kts 204°
2026-04-23 12:36 69.24992 87.22192 2907 ft 204 kts 205°
2026-04-23 12:36 69.23785 87.19900 3329 ft 217 kts 215°
2026-04-23 12:37 69.22940 87.16297 3852 ft 236 kts 243°
2026-04-23 12:37 69.22461 87.11664 4196 ft 254 kts 249°
2026-04-23 12:37 69.22002 87.06831 4806 ft 257 kts 248°
2026-04-23 12:37 69.21493 87.02037 5436 ft 259 kts 246°
2026-04-23 12:38 69.20951 86.97278 6067 ft 260 kts 246°
2026-04-23 12:38 69.20382 86.92416 6666 ft 263 kts 246°
2026-04-23 12:38 69.19810 86.87562 7264 ft 266 kts 246°
2026-04-23 12:38 69.19224 86.82594 7874 ft 269 kts 246°
2026-04-23 12:39 69.18642 86.77655 8457 ft 272 kts 246°
2026-04-23 12:39 69.18045 86.72591 9041 ft 274 kts 246°
2026-04-23 12:39 69.17444 86.67514 9607 ft 278 kts 246°
2026-04-23 12:39 69.16829 86.62342 10149 ft 281 kts 247°
2026-04-23 12:40 69.16200 86.57090 10397 ft 295 kts 247°
2026-04-23 12:40 69.15530 86.51516 10618 ft 310 kts 247°
2026-04-23 12:40 69.14821 86.45608 10835 ft 325 kts 248°
2026-04-23 12:40 69.14096 86.39564 11013 ft 339 kts 248°
2026-04-23 12:41 69.13220 86.33315 11239 ft 349 kts 241°
2026-04-23 12:41 69.12159 86.27129 11795 ft 351 kts 239°
2026-04-23 12:41 69.11053 86.21068 12320 ft 353 kts 238°
2026-04-23 12:41 69.09927 86.14983 12855 ft 356 kts 239°
2026-04-23 12:42 69.08795 86.08842 13373 ft 359 kts 239°
2026-04-23 12:42 69.07657 86.02619 13890 ft 361 kts 239°
2026-04-23 12:42 69.06525 85.96401 14384 ft 364 kts 240°
2026-04-23 12:42 69.05378 85.90086 14883 ft 367 kts 240°
2026-04-23 12:43 69.04213 85.83679 15383 ft 369 kts 240°
2026-04-23 12:43 69.03052 85.77313 15871 ft 371 kts 240°
2026-04-23 12:43 69.01894 85.70979 16383 ft 373 kts 240°
2026-04-23 12:43 69.00716 85.64556 16871 ft 374 kts 240°
2026-04-23 12:44 68.99526 85.58092 17305 ft 378 kts 240°
2026-04-23 12:44 68.98329 85.51610 17805 ft 379 kts 240°
2026-04-23 12:44 68.97130 85.45136 18295 ft 380 kts 240°
2026-04-23 12:44 68.95905 85.38545 18715 ft 383 kts 240°
2026-04-23 12:45 68.94683 85.31993 19193 ft 384 kts 239°
2026-04-23 12:45 68.93459 85.25451 19611 ft 386 kts 239°
2026-04-23 12:45 68.92219 85.18848 20031 ft 388 kts 239°
2026-04-23 12:45 68.90982 85.12280 20469 ft 389 kts 239°
2026-04-23 12:46 68.89709 85.05550 20880 ft 392 kts 239°
2026-04-23 12:46 68.88447 84.98896 21320 ft 393 kts 239°
2026-04-23 12:46 68.87169 84.92188 21710 ft 396 kts 239°
2026-04-23 12:46 68.85884 84.85467 22094 ft 398 kts 239°
2026-04-23 12:47 68.84592 84.78727 22470 ft 401 kts 239°
2026-04-23 12:47 68.83285 84.71929 22836 ft 403 kts 240°
2026-04-23 12:47 68.81968 84.65093 23303 ft 403 kts 240°
2026-04-23 12:47 68.80656 84.58312 23519 ft 409 kts 240°
2026-04-23 12:48 68.79306 84.51338 23935 ft 409 kts 240°
2026-04-23 12:48 68.77971 84.44473 24299 ft 411 kts 240°
2026-04-23 12:48 68.76625 84.37588 24632 ft 413 kts 240°
2026-04-23 12:48 68.75263 84.30666 25025 ft 413 kts 239°
2026-04-23 12:49 68.73888 84.23682 25311 ft 416 kts 239°
2026-04-23 12:49 68.72514 84.16724 25664 ft 417 kts 239°
2026-04-23 12:49 68.71129 84.09723 25963 ft 418 kts 239°
2026-04-23 12:49 68.69750 84.02773 26273 ft 420 kts 239°
2026-04-23 12:50 68.68356 83.95778 26570 ft 421 kts 239°
2026-04-23 12:50 68.66937 83.88677 26784 ft 425 kts 239°
2026-04-23 12:50 68.65511 83.81589 27032 ft 427 kts 239°
2026-04-23 12:50 68.64092 83.74537 27354 ft 428 kts 239°
2026-04-23 12:51 68.62665 83.67455 27706 ft 428 kts 239°
2026-04-23 12:51 68.61229 83.60347 28016 ft 428 kts 239°
2026-04-23 12:51 68.59785 83.53229 28214 ft 432 kts 239°
2026-04-23 12:51 68.58323 83.46063 28404 ft 435 kts 239°
2026-04-23 12:52 68.56840 83.38824 28645 ft 437 kts 239°
2026-04-23 12:52 68.55371 83.31674 29001 ft 435 kts 239°
2026-04-23 12:52 68.53873 83.24404 29373 ft 433 kts 239°
2026-04-23 12:52 68.52402 83.17287 29922 ft 424 kts 239°
2026-04-23 12:53 68.50970 83.10394 30330 ft 419 kts 239°
2026-04-23 12:53 68.49521 83.03449 30560 ft 420 kts 239°
2026-04-23 12:53 68.48068 82.96519 30775 ft 420 kts 239°
2026-04-23 12:53 68.46610 82.89584 31029 ft 419 kts 239°
2026-04-23 12:54 68.45157 82.82690 31216 ft 418 kts 239°
2026-04-23 12:54 68.43708 82.75829 31318 ft 420 kts 239°
2026-04-23 12:54 68.40743 82.61849 31566 ft 422 kts 239°
2026-04-23 12:55 68.39289 82.55024 31746 ft 421 kts 239°
2026-04-23 12:55 68.37820 82.48147 31899 ft 421 kts 239°
2026-04-23 12:55 68.34859 82.34351 32139 ft 423 kts 238°
2026-04-23 12:56 68.33375 82.27476 32267 ft 423 kts 238°
2026-04-23 12:56 68.31891 82.20612 32394 ft 424 kts 238°
2026-04-23 12:56 68.30412 82.13799 32521 ft 424 kts 238°
2026-04-23 12:56 68.28927 82.06974 32655 ft 424 kts 238°
2026-04-23 12:57 68.25924 81.93251 32898 ft 425 kts 239°
2026-04-23 12:57 68.22919 81.79605 33087 ft 428 kts 239°
2026-04-23 12:58 68.21400 81.72737 33224 ft 428 kts 239°
2026-04-23 12:58 68.19878 81.65884 33355 ft 428 kts 239°
2026-04-23 12:58 68.16823 81.52189 33613 ft 428 kts 239°
2026-04-23 12:59 68.15311 81.45442 33724 ft 429 kts 239°
2026-04-23 12:59 68.13760 81.38539 33770 ft 430 kts 239°
2026-04-23 12:59 68.10682 81.24916 33780 ft 429 kts 238°
2026-04-23 13:00 68.07603 81.11370 33777 ft 430 kts 238°
2026-04-23 13:00 68.04492 80.97772 33777 ft 431 kts 238°
2026-04-23 13:01 68.01385 80.84306 33762 ft 429 kts 238°
2026-04-23 13:01 67.98225 80.70913 33764 ft 429 kts 238°
2026-04-23 13:02 67.95027 80.57497 33756 ft 429 kts 237°
2026-04-23 13:02 67.91835 80.44175 33745 ft 429 kts 237°
2026-04-23 13:03 67.88645 80.30929 33758 ft 430 kts 237°
2026-04-23 13:03 67.85416 80.17590 33747 ft 430 kts 237°
2026-04-23 13:04 67.82204 80.04399 33742 ft 430 kts 237°
2026-04-23 13:04 67.78969 79.91192 33736 ft 430 kts 237°
2026-04-23 13:05 67.75716 79.77994 33728 ft 430 kts 237°
2026-04-23 13:05 67.72456 79.64845 33712 ft 428 kts 237°
2026-04-23 13:06 67.67561 79.45251 33710 ft 430 kts 237°
2026-04-23 13:07 67.64276 79.32200 33713 ft 430 kts 236°
2026-04-23 13:07 67.60994 79.19236 33710 ft 430 kts 236°
2026-04-23 13:08 67.57697 79.06291 33709 ft 430 kts 236°
2026-04-23 13:08 67.54375 78.93329 33716 ft 431 kts 236°
2026-04-23 13:09 67.51047 78.80416 33717 ft 429 kts 236°
2026-04-23 13:09 67.47709 78.67569 33711 ft 430 kts 235°
2026-04-23 13:10 67.44213 78.55022 33700 ft 429 kts 233°
2026-04-23 13:10 67.40629 78.42697 33702 ft 431 kts 233°
2026-04-23 13:11 67.37010 78.30312 33699 ft 430 kts 232°
2026-04-23 13:11 67.33431 78.18050 33686 ft 430 kts 232°
2026-04-23 13:12 67.29825 78.05723 33678 ft 430 kts 232°
2026-04-23 13:12 67.26240 77.93516 33673 ft 430 kts 232°
2026-04-23 13:13 67.22614 77.81231 33682 ft 430 kts 232°
2026-04-23 13:13 67.18993 77.69029 33689 ft 431 kts 232°
2026-04-23 13:14 67.15382 77.56927 33688 ft 431 kts 232°
2026-04-23 13:14 67.11739 77.44785 33683 ft 430 kts 232°
2026-04-23 13:15 67.08081 77.32660 33676 ft 430 kts 232°
2026-04-23 13:15 67.04428 77.20736 33665 ft 430 kts 231°
2026-04-23 13:16 67.00698 77.08816 33656 ft 430 kts 231°
2026-04-23 13:16 66.96954 76.96938 33652 ft 432 kts 231°
2026-04-23 13:17 66.93192 76.85044 33647 ft 431 kts 231°
2026-04-23 13:17 66.89452 76.73272 33646 ft 431 kts 231°
2026-04-23 13:18 66.85702 76.61523 33648 ft 431 kts 231°
2026-04-23 13:18 66.81930 76.49770 33654 ft 430 kts 231°
2026-04-23 13:19 66.78162 76.38089 33650 ft 431 kts 231°
2026-04-23 13:19 66.74369 76.26392 33640 ft 431 kts 230°
2026-04-23 13:20 66.70579 76.14771 33640 ft 432 kts 230°
2026-04-23 13:20 66.66767 76.03142 33631 ft 431 kts 230°
2026-04-23 13:21 66.62958 75.91583 33623 ft 431 kts 230°
2026-04-23 13:21 66.59128 75.80026 33628 ft 432 kts 230°
2026-04-23 13:22 66.55289 75.68501 33626 ft 432 kts 230°
2026-04-23 13:22 66.51436 75.56995 33622 ft 432 kts 230°
2026-04-23 13:23 66.47595 75.45588 33621 ft 432 kts 230°
2026-04-23 13:23 66.43717 75.34129 33615 ft 432 kts 229°
2026-04-23 13:24 66.39854 75.22774 33614 ft 432 kts 229°
2026-04-23 13:24 66.35989 75.11472 33614 ft 431 kts 230°
2026-04-23 13:25 66.32107 75.00182 33605 ft 432 kts 229°
2026-04-23 13:25 66.28196 74.88865 33601 ft 432 kts 229°
2026-04-23 13:26 66.24297 74.77641 33598 ft 432 kts 229°
2026-04-23 13:26 66.20393 74.66465 33598 ft 432 kts 229°
2026-04-23 13:27 66.16469 74.55285 33598 ft 432 kts 230°
2026-04-23 13:27 66.12552 74.44182 33590 ft 432 kts 230°
2026-04-23 13:28 66.08611 74.33070 33592 ft 432 kts 229°
2026-04-23 13:28 66.04660 74.21992 33589 ft 431 kts 229°
2026-04-23 13:29 66.00708 74.10962 33583 ft 432 kts 229°
2026-04-23 13:29 65.96740 73.99943 33583 ft 434 kts 229°
2026-04-23 13:30 65.92776 73.88993 33581 ft 432 kts 229°
2026-04-23 13:30 65.88798 73.78062 33575 ft 432 kts 229°
2026-04-23 13:31 65.84804 73.67142 33568 ft 433 kts 229°
2026-04-23 13:31 65.80816 73.56295 33560 ft 433 kts 229°
2026-04-23 13:32 65.76810 73.45480 33560 ft 432 kts 229°
2026-04-23 13:32 65.72792 73.34697 33568 ft 432 kts 228°
2026-04-23 13:33 65.68763 73.23937 33563 ft 432 kts 228°
2026-04-23 13:33 65.64730 73.13218 33557 ft 433 kts 228°
2026-04-23 13:34 65.60680 73.02502 33555 ft 433 kts 228°
2026-04-23 13:34 65.56632 72.91847 33559 ft 434 kts 228°
2026-04-23 13:35 65.52569 72.81206 33558 ft 433 kts 228°
2026-04-23 13:35 65.48494 72.70585 33557 ft 433 kts 228°
2026-04-23 13:36 65.44487 72.59810 33556 ft 433 kts 230°
2026-04-23 13:36 65.40581 72.48926 33556 ft 433 kts 230°
2026-04-23 13:37 65.36686 72.38090 33553 ft 432 kts 230°
2026-04-23 13:37 65.32745 72.27229 33551 ft 433 kts 229°
2026-04-23 13:38 65.28803 72.16453 33548 ft 433 kts 229°
2026-04-23 13:38 65.24856 72.05738 33545 ft 433 kts 229°
2026-04-23 13:39 65.20884 71.95016 33547 ft 433 kts 229°
2026-04-23 13:39 65.16908 71.84335 33543 ft 434 kts 229°
2026-04-23 13:40 65.12915 71.73634 33543 ft 433 kts 229°
2026-04-23 13:40 65.08959 71.63073 33546 ft 433 kts 229°
2026-04-23 13:41 65.04964 71.52464 33545 ft 433 kts 229°
2026-04-23 13:41 65.00959 71.41879 33549 ft 432 kts 229°
2026-04-23 13:42 64.96976 71.31406 33547 ft 433 kts 228°
2026-04-23 13:42 64.92960 71.20895 33549 ft 433 kts 228°
2026-04-23 13:43 64.88941 71.10432 33556 ft 433 kts 229°
2026-04-23 13:43 64.84911 70.99989 33563 ft 433 kts 229°
2026-04-23 13:44 64.80876 70.89562 33557 ft 433 kts 229°
2026-04-23 13:44 64.76833 70.79154 33549 ft 433 kts 229°
2026-04-23 13:45 64.72800 70.68823 33548 ft 433 kts 229°
2026-04-23 13:45 64.68758 70.58514 33548 ft 433 kts 229°
2026-04-23 13:46 64.64692 70.48199 33544 ft 433 kts 229°
2026-04-23 13:46 64.60645 70.37983 33550 ft 434 kts 229°
2026-04-23 13:47 64.56570 70.27741 33549 ft 433 kts 228°
2026-04-23 13:47 64.52466 70.17478 33555 ft 434 kts 228°
2026-04-23 13:48 64.48372 70.07290 33557 ft 433 kts 228°
2026-04-23 13:48 64.44280 69.97154 33562 ft 433 kts 228°
2026-04-23 13:49 64.40060 69.87348 33562 ft 434 kts 225°
2026-04-23 13:49 64.35658 69.77872 33562 ft 434 kts 224°
2026-04-23 13:50 64.31254 69.68497 33565 ft 434 kts 224°
2026-04-23 13:50 64.26856 69.59103 33572 ft 434 kts 225°
2026-04-23 13:51 64.22454 69.49683 33572 ft 434 kts 225°
2026-04-23 13:51 64.18063 69.40304 33559 ft 433 kts 225°
2026-04-23 13:52 64.13666 69.30943 33559 ft 434 kts 224°
2026-04-23 13:52 64.09265 69.21612 33562 ft 434 kts 224°
2026-04-23 13:53 64.04868 69.12332 33566 ft 434 kts 224°
2026-04-23 13:53 64.00446 69.03039 33577 ft 434 kts 224°
2026-04-23 13:54 63.96037 68.93817 33576 ft 434 kts 224°
2026-04-23 13:54 63.91585 68.84546 33590 ft 434 kts 224°
2026-04-23 13:55 63.87185 68.75424 33591 ft 432 kts 224°
2026-04-23 13:55 63.82752 68.66275 33599 ft 432 kts 224°
2026-04-23 13:56 63.78320 68.57170 33588 ft 433 kts 224°
2026-04-23 13:56 63.73853 68.48031 33598 ft 434 kts 224°
2026-04-23 13:57 63.69411 68.38989 33601 ft 432 kts 224°
2026-04-23 13:57 63.64975 68.29997 33590 ft 433 kts 223°
2026-04-23 13:58 63.60486 68.20934 33586 ft 433 kts 223°
2026-04-23 13:58 63.56031 68.11983 33590 ft 433 kts 223°
2026-04-23 13:59 63.51553 68.03025 33580 ft 433 kts 223°
2026-04-23 13:59 63.47080 67.94116 33588 ft 433 kts 223°
2026-04-23 14:00 63.43353 67.86721 33591 ft 432 kts 223°
2026-04-23 14:00 63.38100 67.76347 33603 ft 433 kts 223°
2026-04-23 14:01 63.33610 67.67519 33593 ft 433 kts 223°
2026-04-23 14:01 63.29113 67.58720 33595 ft 433 kts 223°
2026-04-23 14:02 63.24591 67.49906 33590 ft 433 kts 223°
2026-04-23 14:02 63.20073 67.41138 33587 ft 432 kts 223°
2026-04-23 14:03 63.15555 67.32411 33599 ft 433 kts 223°
2026-04-23 14:03 63.11052 67.23749 33592 ft 433 kts 223°
2026-04-23 14:04 63.06493 67.15014 33581 ft 432 kts 223°
2026-04-23 14:04 63.01971 67.06345 33585 ft 432 kts 223°
2026-04-23 14:05 62.97448 66.97693 33585 ft 432 kts 223°
2026-04-23 14:05 62.92926 66.89081 33597 ft 432 kts 223°
2026-04-23 14:06 62.88383 66.80468 33607 ft 433 kts 223°
2026-04-23 14:06 62.83803 66.71823 33603 ft 433 kts 223°
2026-04-23 14:07 62.79253 66.63274 33609 ft 432 kts 223°
2026-04-23 14:07 62.72429 66.50519 33598 ft 432 kts 223°
2026-04-23 14:08 62.67843 66.41991 33602 ft 432 kts 223°
2026-04-23 14:08 62.63274 66.33534 33600 ft 432 kts 222°
2026-04-23 14:09 62.58713 66.25124 33608 ft 433 kts 222°
2026-04-23 14:09 62.54141 66.16730 33605 ft 432 kts 222°
2026-04-23 14:10 62.49538 66.08317 33603 ft 432 kts 222°
2026-04-23 14:10 62.45036 65.99799 33614 ft 431 kts 225°
2026-04-23 14:11 62.40826 65.90582 33621 ft 430 kts 228°
2026-04-23 14:11 62.36721 65.81252 33619 ft 430 kts 228°
2026-04-23 14:12 62.32614 65.72004 33620 ft 430 kts 228°
2026-04-23 14:12 62.28434 65.62719 33624 ft 430 kts 228°
2026-04-23 14:13 62.24246 65.53509 33619 ft 431 kts 227°
2026-04-23 14:13 62.20078 65.44402 33622 ft 431 kts 227°
2026-04-23 14:14 62.15882 65.35284 33615 ft 431 kts 227°
2026-04-23 14:14 62.11668 65.26166 33617 ft 431 kts 226°
2026-04-23 14:15 62.07460 65.17102 33609 ft 431 kts 226°
2026-04-23 14:15 62.03188 65.07941 33623 ft 431 kts 226°
2026-04-23 14:16 61.98958 64.98906 33614 ft 430 kts 227°
2026-04-23 14:16 61.94734 64.89922 33613 ft 431 kts 226°
2026-04-23 14:17 61.90408 64.81168 33610 ft 431 kts 224°
2026-04-23 14:17 61.85931 64.72616 33610 ft 432 kts 224°
2026-04-23 14:18 61.81453 64.64130 33610 ft 432 kts 224°
2026-04-23 14:18 61.76987 64.55654 33615 ft 432 kts 224°
2026-04-23 14:19 61.72537 64.47201 33625 ft 433 kts 224°
2026-04-23 14:19 61.68053 64.38703 33623 ft 432 kts 224°
2026-04-23 14:20 61.63609 64.30309 33620 ft 432 kts 223°
2026-04-23 14:20 61.59139 64.21892 33625 ft 432 kts 223°
2026-04-23 14:21 61.54669 64.13503 33615 ft 432 kts 223°
2026-04-23 14:21 61.50181 64.05112 33620 ft 433 kts 223°
2026-04-23 14:22 61.45702 63.96773 33615 ft 433 kts 223°
2026-04-23 14:22 61.41194 63.88413 33614 ft 434 kts 223°
2026-04-23 14:23 61.36703 63.80119 33617 ft 434 kts 223°
2026-04-23 14:23 61.32179 63.71883 33620 ft 433 kts 221°
2026-04-23 14:24 61.27054 63.65286 33621 ft 436 kts 203°
2026-04-23 14:24 61.21221 63.61668 33636 ft 439 kts 196°
2026-04-23 14:25 61.15288 63.58824 33636 ft 440 kts 195°
2026-04-23 14:25 61.09306 63.56032 33640 ft 441 kts 195°
2026-04-23 14:26 61.03362 63.53197 33637 ft 441 kts 195°
2026-04-23 14:26 60.97434 63.50326 33633 ft 440 kts 195°
2026-04-23 14:27 60.91497 63.47434 33640 ft 439 kts 195°
2026-04-23 14:27 60.85576 63.44556 33634 ft 439 kts 195°
2026-04-23 14:28 60.79656 63.41713 33627 ft 439 kts 195°
2026-04-23 14:28 60.73727 63.38884 33631 ft 439 kts 195°
2026-04-23 14:29 60.67822 63.36076 33639 ft 439 kts 195°
2026-04-23 14:29 60.61855 63.33247 33634 ft 439 kts 194°
2026-04-23 14:30 60.55969 63.30466 33632 ft 438 kts 194°
2026-04-23 14:30 60.50052 63.27680 33635 ft 438 kts 194°
2026-04-23 14:31 60.44155 63.24914 33636 ft 437 kts 194°
2026-04-23 14:31 60.38219 63.22140 33653 ft 438 kts 194°
2026-04-23 14:32 60.32313 63.19389 33634 ft 438 kts 194°
2026-04-23 14:32 60.26429 63.16659 33640 ft 437 kts 194°
2026-04-23 14:33 60.20522 63.13928 33638 ft 437 kts 194°
2026-04-23 14:33 60.14619 63.11204 33646 ft 437 kts 194°
2026-04-23 14:34 60.08726 63.08484 33647 ft 437 kts 194°
2026-04-23 14:34 60.02839 63.05769 33640 ft 436 kts 194°
2026-04-23 14:35 59.96952 63.03064 33643 ft 436 kts 194°
2026-04-23 14:35 59.91065 63.00369 33643 ft 436 kts 194°
2026-04-23 14:36 59.85155 62.97678 33644 ft 435 kts 194°
2026-04-23 14:36 59.79263 62.95006 33645 ft 435 kts 194°
2026-04-23 14:37 59.73401 62.92357 33639 ft 434 kts 194°
2026-04-23 14:37 59.67561 62.89727 33640 ft 434 kts 194°
2026-04-23 14:38 59.61695 62.87093 33636 ft 435 kts 194°
2026-04-23 14:38 59.55827 62.84469 33636 ft 434 kts 194°
2026-04-23 14:39 59.49941 62.81847 33637 ft 434 kts 194°
2026-04-23 14:39 59.44100 62.79254 33649 ft 433 kts 194°
2026-04-23 14:40 59.38150 62.77034 33645 ft 434 kts 189°
2026-04-23 14:40 59.32172 62.76242 33642 ft 435 kts 184°
2026-04-23 14:41 59.26130 62.75945 33634 ft 435 kts 184°
2026-04-23 14:41 59.20107 62.75685 33631 ft 435 kts 184°
2026-04-23 14:42 59.14104 62.75373 33633 ft 434 kts 184°
2026-04-23 14:42 59.08089 62.75023 33631 ft 434 kts 184°
2026-04-23 14:43 59.02074 62.74656 33635 ft 435 kts 184°
2026-04-23 14:43 58.96053 62.74283 33636 ft 434 kts 184°
2026-04-23 14:44 58.90035 62.73909 33632 ft 433 kts 184°
2026-04-23 14:44 58.84065 62.73537 33635 ft 433 kts 184°
2026-04-23 14:45 58.78072 62.73166 33625 ft 432 kts 184°
2026-04-23 14:45 58.72086 62.72796 33626 ft 433 kts 185°
2026-04-23 14:46 58.66051 62.72424 33623 ft 434 kts 185°
2026-04-23 14:46 58.60090 62.72059 33622 ft 434 kts 185°
2026-04-23 14:47 58.54057 62.71690 33614 ft 434 kts 185°
2026-04-23 14:47 58.48061 62.71658 33616 ft 434 kts 181°
2026-04-23 14:48 58.42036 62.71995 33624 ft 433 kts 181°
2026-04-23 14:48 58.36028 62.72357 33625 ft 433 kts 181°
2026-04-23 14:49 58.30047 62.72672 33622 ft 433 kts 181°
2026-04-23 14:49 58.24040 62.72957 33622 ft 434 kts 181°
2026-04-23 14:50 58.18040 62.73224 33620 ft 434 kts 182°
2026-04-23 14:50 58.12026 62.73487 33619 ft 435 kts 182°
2026-04-23 14:51 58.05987 62.73747 33621 ft 435 kts 182°
2026-04-23 14:51 57.99999 62.74005 33619 ft 434 kts 182°
2026-04-23 14:52 57.93998 62.74263 33623 ft 432 kts 182°
2026-04-23 14:52 57.88006 62.74518 33613 ft 432 kts 182°
2026-04-23 14:53 57.82022 62.74771 33613 ft 432 kts 182°
2026-04-23 14:53 57.76101 62.73955 33611 ft 426 kts 196°
2026-04-23 14:54 57.70718 62.69593 33607 ft 422 kts 214°
2026-04-23 14:54 57.66164 62.62813 33609 ft 420 kts 226°
2026-04-23 14:55 57.62262 62.54759 33599 ft 419 kts 230°
2026-04-23 14:55 57.58555 62.46470 33595 ft 418 kts 231°
2026-04-23 14:56 57.54826 62.38202 33596 ft 418 kts 230°
2026-04-23 14:56 57.51043 62.29966 33599 ft 418 kts 229°
2026-04-23 14:57 57.47262 62.21838 33593 ft 418 kts 229°
2026-04-23 14:57 57.43436 62.13674 33602 ft 419 kts 229°
2026-04-23 14:58 57.39639 62.05615 33602 ft 419 kts 229°
2026-04-23 14:58 57.35807 61.97511 33605 ft 419 kts 229°
2026-04-23 14:59 57.31950 61.89471 33602 ft 420 kts 227°
2026-04-23 14:59 57.27945 61.81636 33598 ft 419 kts 226°
2026-04-23 15:00 57.23924 61.73929 33587 ft 418 kts 226°
2026-04-23 15:00 57.19912 61.66235 33584 ft 418 kts 226°
2026-04-23 15:01 57.15912 61.58554 33584 ft 418 kts 226°
2026-04-23 15:01 57.11881 61.50820 33582 ft 419 kts 227°
2026-04-23 15:02 57.07867 61.43137 33583 ft 420 kts 227°
2026-04-23 15:02 57.03847 61.35464 33584 ft 419 kts 227°
2026-04-23 15:03 56.99805 61.27773 33583 ft 418 kts 226°
2026-04-23 15:03 56.95795 61.20171 33584 ft 417 kts 226°
2026-04-23 15:04 56.91765 61.12549 33584 ft 418 kts 226°
2026-04-23 15:04 56.87741 61.04940 33588 ft 417 kts 226°
2026-04-23 15:05 56.83722 60.97359 33584 ft 417 kts 226°
2026-04-23 15:05 56.79685 60.89772 33588 ft 417 kts 226°
2026-04-23 15:06 56.75662 60.82238 33591 ft 417 kts 226°
2026-04-23 15:06 56.71621 60.74796 33586 ft 418 kts 225°
2026-04-23 15:07 56.67457 60.67415 33577 ft 419 kts 225°
2026-04-23 15:07 56.63300 60.60110 33579 ft 419 kts 225°
2026-04-23 15:08 56.59116 60.52745 33585 ft 419 kts 225°
2026-04-23 15:09 56.52991 60.41586 33590 ft 419 kts 226°
2026-04-23 15:09 56.48838 60.34122 33588 ft 420 kts 224°
2026-04-23 15:10 56.45352 60.28011 33589 ft 420 kts 224°
2026-04-23 15:10 56.40490 60.19541 33587 ft 419 kts 224°
2026-04-23 15:11 56.36311 60.12250 33590 ft 419 kts 224°
2026-04-23 15:11 56.32145 60.04980 33593 ft 419 kts 224°
2026-04-23 15:12 56.27977 59.97723 33593 ft 419 kts 225°
2026-04-23 15:12 56.23794 59.90464 33595 ft 420 kts 224°
2026-04-23 15:13 56.19609 59.83228 33597 ft 419 kts 225°
2026-04-23 15:13 56.15413 59.75995 33596 ft 420 kts 224°
2026-04-23 15:14 56.11211 59.68775 33598 ft 420 kts 224°
2026-04-23 15:14 56.07060 59.61476 33598 ft 419 kts 228°
2026-04-23 15:15 56.03580 59.53225 33589 ft 419 kts 238°
2026-04-23 15:15 56.00764 59.44202 33586 ft 419 kts 242°
2026-04-23 15:16 55.98101 59.34950 33590 ft 420 kts 242°
2026-04-23 15:16 55.95436 59.25699 33609 ft 420 kts 242°
2026-04-23 15:17 55.92751 59.16511 33604 ft 419 kts 242°
2026-04-23 15:17 55.90037 59.07330 33602 ft 420 kts 242°
2026-04-23 15:18 55.87316 58.98188 33607 ft 419 kts 242°
2026-04-23 15:18 55.84594 58.89091 33609 ft 420 kts 242°
2026-04-23 15:19 55.81836 58.79916 33610 ft 420 kts 242°
2026-04-23 15:19 55.79097 58.70845 33614 ft 419 kts 242°
2026-04-23 15:20 55.76337 58.61736 33616 ft 421 kts 242°
2026-04-23 15:20 55.73576 58.52655 33620 ft 421 kts 242°
2026-04-23 15:21 55.70805 58.43580 33619 ft 420 kts 242°
2026-04-23 15:21 55.68018 58.34487 33620 ft 419 kts 241°
2026-04-23 15:22 55.65244 58.25469 33618 ft 420 kts 241°
2026-04-23 15:22 55.62450 58.16423 33619 ft 419 kts 241°
2026-04-23 15:23 55.59676 58.07474 33616 ft 419 kts 241°
2026-04-23 15:23 55.56873 57.98465 33611 ft 420 kts 241°
2026-04-23 15:24 55.54049 57.89438 33613 ft 419 kts 241°
2026-04-23 15:24 55.51218 57.80449 33611 ft 420 kts 241°
2026-04-23 15:25 55.48381 57.71481 33618 ft 419 kts 241°
2026-04-23 15:25 55.45563 57.62601 33623 ft 419 kts 241°
2026-04-23 15:26 55.42722 57.53675 33620 ft 419 kts 241°
2026-04-23 15:26 55.39867 57.44745 33622 ft 419 kts 241°
2026-04-23 15:27 55.37019 57.35866 33615 ft 420 kts 241°
2026-04-23 15:27 55.34152 57.26962 33613 ft 419 kts 240°
2026-04-23 15:28 55.31296 57.18124 33610 ft 420 kts 240°
2026-04-23 15:28 55.28414 57.09227 33616 ft 420 kts 240°
2026-04-23 15:29 55.25540 57.00364 33623 ft 420 kts 240°
2026-04-23 15:29 55.22666 56.91528 33632 ft 420 kts 240°
2026-04-23 15:30 55.19774 56.82671 33635 ft 420 kts 241°
2026-04-23 15:30 55.16880 56.73846 33640 ft 419 kts 240°
2026-04-23 15:31 55.13980 56.65034 33640 ft 420 kts 240°
2026-04-23 15:31 55.11076 56.56243 33644 ft 419 kts 241°
2026-04-23 15:32 55.08154 56.47428 33649 ft 419 kts 241°
2026-04-23 15:32 55.05231 56.38631 33655 ft 420 kts 241°
2026-04-23 15:33 55.02303 56.29847 33661 ft 420 kts 240°
2026-04-23 15:33 54.99381 56.21116 33666 ft 420 kts 240°
2026-04-23 15:34 54.96440 56.12360 33671 ft 420 kts 240°
2026-04-23 15:34 54.93495 56.03621 33673 ft 419 kts 240°
2026-04-23 15:35 54.90562 55.94952 33673 ft 418 kts 240°
2026-04-23 15:35 54.87619 55.86284 33670 ft 418 kts 240°
2026-04-23 15:36 54.84655 55.77594 33672 ft 418 kts 240°
2026-04-23 15:36 54.81706 55.68988 33664 ft 418 kts 240°
2026-04-23 15:37 54.78736 55.60352 33664 ft 420 kts 240°
2026-04-23 15:37 54.75751 55.51701 33666 ft 419 kts 240°
2026-04-23 15:38 54.72767 55.43081 33660 ft 420 kts 240°
2026-04-23 15:38 54.69777 55.34477 33667 ft 419 kts 239°
2026-04-23 15:39 54.66769 55.25851 33671 ft 420 kts 239°
2026-04-23 15:39 54.63762 55.17255 33678 ft 419 kts 239°
2026-04-23 15:40 54.60744 55.08650 33678 ft 419 kts 239°
2026-04-23 15:40 54.57740 55.00114 33669 ft 419 kts 239°
2026-04-23 15:41 54.54722 54.91569 33674 ft 419 kts 239°
2026-04-23 15:41 54.51696 54.83024 33679 ft 420 kts 239°
2026-04-23 15:42 54.48650 54.74454 33678 ft 420 kts 239°
2026-04-23 15:42 54.45588 54.65865 33678 ft 419 kts 239°
2026-04-23 15:43 54.42562 54.57410 33676 ft 419 kts 239°
2026-04-23 15:43 54.39343 54.49030 33674 ft 420 kts 233°
2026-04-23 15:44 54.34961 54.42525 33670 ft 425 kts 213°
2026-04-23 15:44 54.29575 54.38236 33666 ft 429 kts 205°
2026-04-23 15:45 54.24013 54.34549 33664 ft 427 kts 203°
2026-04-23 15:45 54.18471 54.30967 33665 ft 427 kts 203°
2026-04-23 15:46 54.12913 54.27347 33675 ft 427 kts 204°
2026-04-23 15:46 54.07405 54.23730 33680 ft 427 kts 204°
2026-04-23 15:47 54.01871 54.20089 33681 ft 426 kts 204°
2026-04-23 15:47 53.96360 54.16468 33691 ft 426 kts 204°
2026-04-23 15:48 53.90843 54.12851 33700 ft 427 kts 204°
2026-04-23 15:48 53.85306 54.09232 33696 ft 427 kts 204°
2026-04-23 15:49 53.79787 54.05636 33697 ft 425 kts 204°
2026-04-23 15:49 53.74312 54.02079 33697 ft 423 kts 204°
2026-04-23 15:50 53.68817 53.98517 33689 ft 424 kts 204°
2026-04-23 15:50 53.63309 53.94956 33694 ft 424 kts 204°
2026-04-23 15:51 53.57797 53.91404 33702 ft 423 kts 204°
2026-04-23 15:51 53.52306 53.87875 33706 ft 423 kts 204°
2026-04-23 15:52 53.46811 53.84352 33713 ft 424 kts 204°
2026-04-23 15:52 53.41300 53.80831 33721 ft 422 kts 204°
2026-04-23 15:53 53.35845 53.77323 33723 ft 421 kts 205°
2026-04-23 15:53 53.30527 53.73249 33720 ft 419 kts 209°
2026-04-23 15:54 53.25299 53.68886 33722 ft 419 kts 210°
2026-04-23 15:54 53.20063 53.64533 33723 ft 419 kts 209°
2026-04-23 15:55 53.14835 53.60251 33723 ft 419 kts 209°
2026-04-23 15:55 53.09608 53.56015 33724 ft 419 kts 209°
2026-04-23 15:56 53.04349 53.51780 33729 ft 418 kts 209°
2026-04-23 15:56 52.99108 53.47577 33723 ft 419 kts 209°
2026-04-23 15:57 52.93875 53.43395 33737 ft 415 kts 209°
2026-04-23 15:57 52.88645 53.39225 33733 ft 418 kts 209°
2026-04-23 15:58 52.83396 53.35052 33732 ft 417 kts 209°
2026-04-23 15:58 52.78176 53.30913 33738 ft 417 kts 208°
2026-04-23 15:59 52.72969 53.26796 33740 ft 417 kts 208°
2026-04-23 15:59 52.67758 53.22687 33748 ft 416 kts 208°
2026-04-23 16:00 52.62483 53.18762 33749 ft 417 kts 205°
2026-04-23 16:00 52.57107 53.15316 33750 ft 416 kts 204°
2026-04-23 16:01 52.51726 53.11959 33753 ft 414 kts 204°
2026-04-23 16:01 52.46381 53.08581 33749 ft 414 kts 204°
2026-04-23 16:02 52.41007 53.05154 33752 ft 414 kts 205°
2026-04-23 16:02 52.35635 53.01720 33755 ft 415 kts 205°
2026-04-23 16:03 52.30308 52.98322 33754 ft 414 kts 205°
2026-04-23 16:03 52.24962 52.94918 33755 ft 414 kts 205°
2026-04-23 16:04 52.19613 52.91521 33753 ft 413 kts 205°
2026-04-23 16:04 52.14259 52.88128 33759 ft 412 kts 205°
2026-04-23 16:05 52.09826 52.85327 33756 ft 412 kts 205°
2026-04-23 16:05 52.03635 52.81424 33758 ft 411 kts 205°
2026-04-23 16:06 51.98333 52.78089 33769 ft 411 kts 205°
2026-04-23 16:06 51.93001 52.74745 33776 ft 411 kts 205°
2026-04-23 16:07 51.87677 52.71414 33781 ft 411 kts 205°
2026-04-23 16:07 51.82367 52.68099 33792 ft 410 kts 205°
2026-04-23 16:08 51.77056 52.64795 33793 ft 409 kts 205°
2026-04-23 16:08 51.71746 52.61500 33789 ft 409 kts 205°
2026-04-23 16:09 51.66429 52.58205 33787 ft 409 kts 205°
2026-04-23 16:09 51.61145 52.54942 33791 ft 408 kts 205°
2026-04-23 16:10 51.56090 52.50959 33794 ft 401 kts 218°
2026-04-23 16:10 51.52151 52.44833 33801 ft 397 kts 233°
2026-04-23 16:11 51.49001 52.37615 33790 ft 395 kts 238°
2026-04-23 16:11 51.46003 52.30157 33790 ft 396 kts 237°
2026-04-23 16:12 51.43033 52.22748 33791 ft 396 kts 238°
2026-04-23 16:12 51.40052 52.15378 33789 ft 395 kts 237°
2026-04-23 16:13 51.37041 52.07992 33793 ft 396 kts 237°
2026-04-23 16:13 51.32552 51.97050 33802 ft 395 kts 237°
2026-04-23 16:14 51.29536 51.89726 33793 ft 397 kts 237°
2026-04-23 16:14 51.26512 51.82404 33789 ft 395 kts 237°
2026-04-23 16:15 51.23471 51.75063 33789 ft 394 kts 237°
2026-04-23 16:15 51.20442 51.67849 33783 ft 395 kts 235°
2026-04-23 16:16 51.16684 51.61440 33789 ft 399 kts 219°
2026-04-23 16:16 51.11808 51.57250 33790 ft 404 kts 206°
2026-04-23 16:17 51.06333 51.55116 33789 ft 414 kts 190°
2026-04-23 16:17 51.00564 51.55098 33798 ft 419 kts 184°
2026-04-23 16:18 50.94740 51.55586 33796 ft 419 kts 183°
2026-04-23 16:18 50.88904 51.56097 33812 ft 418 kts 184°
2026-04-23 16:19 50.83129 51.56552 33814 ft 416 kts 184°
2026-04-23 16:19 50.77309 51.56972 33813 ft 416 kts 184°
2026-04-23 16:20 50.71543 51.57376 33810 ft 413 kts 184°
2026-04-23 16:20 50.65835 51.57768 33809 ft 413 kts 185°
2026-04-23 16:21 50.60100 51.58158 33792 ft 413 kts 185°
2026-04-23 16:21 50.54346 51.58548 33798 ft 412 kts 185°
2026-04-23 16:22 50.48629 51.58939 33810 ft 413 kts 185°
2026-04-23 16:22 50.42878 51.59330 33809 ft 411 kts 185°
2026-04-23 16:23 50.37168 51.59715 33822 ft 413 kts 185°
2026-04-23 16:23 50.31446 51.60102 33823 ft 411 kts 185°
2026-04-23 16:24 50.25778 51.60484 33814 ft 409 kts 185°
2026-04-23 16:24 50.20105 51.60864 33834 ft 408 kts 186°
2026-04-23 16:25 50.14446 51.61246 33814 ft 407 kts 186°
2026-04-23 16:25 50.08799 51.61618 33815 ft 407 kts 186°
2026-04-23 16:26 50.03147 51.61997 33817 ft 406 kts 186°
2026-04-23 16:26 49.97499 51.62373 33831 ft 407 kts 186°
2026-04-23 16:27 49.94702 51.62232 33827 ft 396 kts 195°
2026-04-23 16:27 49.92078 51.61377 33826 ft 378 kts 202°
2026-04-23 16:27 49.87173 51.58992 33859 ft 364 kts 205°
2026-04-23 16:28 49.82265 51.56653 33960 ft 377 kts 203°
2026-04-23 16:28 49.77116 51.54461 34051 ft 390 kts 201°
2026-04-23 16:29 49.71803 51.52340 34299 ft 396 kts 201°
2026-04-23 16:29 49.69120 51.51295 34527 ft 396 kts 200°
2026-04-23 16:29 49.66470 51.50270 34756 ft 396 kts 200°
2026-04-23 16:30 49.63786 51.49235 34941 ft 397 kts 200°
2026-04-23 16:30 49.61093 51.48196 35083 ft 398 kts 200°
2026-04-23 16:30 49.58421 51.47165 35227 ft 399 kts 200°
2026-04-23 16:30 49.55715 51.46125 35410 ft 399 kts 200°
2026-04-23 16:31 49.53051 51.45101 35581 ft 399 kts 200°
2026-04-23 16:31 49.50337 51.44057 35696 ft 401 kts 200°
2026-04-23 16:31 49.47631 51.43015 35805 ft 403 kts 200°
2026-04-23 16:31 49.44914 51.41969 35822 ft 405 kts 200°
2026-04-23 16:32 49.39434 51.39874 35826 ft 401 kts 200°
2026-04-23 16:32 49.34037 51.37816 35830 ft 400 kts 200°
2026-04-23 16:33 49.28634 51.35751 35834 ft 401 kts 200°
2026-04-23 16:33 49.23250 51.33703 35842 ft 401 kts 199°
2026-04-23 16:34 49.17816 51.31641 35827 ft 400 kts 199°
2026-04-23 16:34 49.12425 51.29598 35856 ft 402 kts 199°
2026-04-23 16:35 49.07006 51.27550 35832 ft 400 kts 199°
2026-04-23 16:35 49.01654 51.25531 35831 ft 398 kts 199°
2026-04-23 16:36 48.96238 51.23490 35832 ft 401 kts 200°
2026-04-23 16:36 48.90848 51.21469 35836 ft 398 kts 200°
2026-04-23 16:37 48.85457 51.19448 35835 ft 400 kts 199°
2026-04-23 16:37 48.80055 51.17428 35837 ft 399 kts 199°
2026-04-23 16:38 48.74681 51.15424 35849 ft 400 kts 200°
2026-04-23 16:38 48.69297 51.13422 35853 ft 399 kts 199°
2026-04-23 16:39 48.63909 51.11422 35831 ft 400 kts 200°
2026-04-23 16:39 48.58478 51.09408 35843 ft 400 kts 199°
2026-04-23 16:40 48.53057 51.07406 35838 ft 397 kts 199°
2026-04-23 16:40 48.47681 51.05421 35839 ft 400 kts 199°
2026-04-23 16:41 48.42309 51.03445 35868 ft 399 kts 199°
2026-04-23 16:41 48.36929 51.01468 35840 ft 398 kts 200°
2026-04-23 16:42 48.31543 50.99494 35829 ft 398 kts 200°
2026-04-23 16:42 48.26162 50.97524 35860 ft 399 kts 200°
2026-04-23 16:43 48.20804 50.95569 35843 ft 400 kts 200°
2026-04-23 16:43 48.15398 50.93600 35861 ft 400 kts 200°
2026-04-23 16:44 48.10004 50.91642 35842 ft 398 kts 200°
2026-04-23 16:44 48.04635 50.89696 35847 ft 399 kts 200°
2026-04-23 16:45 47.99269 50.87754 35855 ft 399 kts 200°
2026-04-23 16:45 47.93858 50.85801 35846 ft 398 kts 200°
2026-04-23 16:46 47.88488 50.83866 35842 ft 399 kts 200°
2026-04-23 16:46 47.83118 50.81939 35850 ft 399 kts 200°
2026-04-23 16:47 47.77730 50.80008 35859 ft 399 kts 200°
2026-04-23 16:47 47.72338 50.78079 35858 ft 399 kts 200°
2026-04-23 16:48 47.66966 50.76161 35862 ft 400 kts 200°
2026-04-23 16:48 47.61544 50.74229 35854 ft 399 kts 200°
2026-04-23 16:49 47.56165 50.72317 35862 ft 399 kts 200°
2026-04-23 16:49 47.50796 50.70409 35864 ft 400 kts 200°
2026-04-23 16:50 47.45365 50.68486 35859 ft 400 kts 200°
2026-04-23 16:50 47.39983 50.66583 35858 ft 400 kts 200°
2026-04-23 16:51 47.34657 50.64706 35856 ft 400 kts 200°
2026-04-23 16:51 47.29267 50.62810 35866 ft 401 kts 200°
2026-04-23 16:52 47.23816 50.60896 35870 ft 402 kts 200°
2026-04-23 16:52 47.18417 50.59005 35865 ft 402 kts 200°
2026-04-23 16:53 47.13005 50.57114 35864 ft 401 kts 200°
2026-04-23 16:53 47.07589 50.55224 35880 ft 402 kts 200°
2026-04-23 16:54 47.02179 50.53339 35878 ft 402 kts 200°
2026-04-23 16:54 46.96736 50.51447 35883 ft 403 kts 200°
2026-04-23 16:55 46.91310 50.49569 35873 ft 402 kts 200°
2026-04-23 16:55 46.85844 50.47677 35868 ft 403 kts 200°
2026-04-23 16:56 46.80474 50.45830 35874 ft 395 kts 200°
2026-04-23 16:56 46.75079 50.43963 35869 ft 404 kts 200°
2026-04-23 16:57 46.69613 50.42079 35875 ft 404 kts 200°
2026-04-23 16:57 46.64161 50.40212 35869 ft 405 kts 200°
2026-04-23 16:58 46.58698 50.38343 35866 ft 404 kts 200°
2026-04-23 16:58 46.53229 50.36476 35870 ft 404 kts 200°
2026-04-23 16:59 46.47770 50.34613 35860 ft 405 kts 199°
2026-04-23 16:59 46.42290 50.32748 35866 ft 406 kts 199°
2026-04-23 17:00 46.36765 50.30872 35867 ft 407 kts 199°
2026-04-23 17:00 46.31275 50.29010 35871 ft 406 kts 199°
2026-04-23 17:01 46.25804 50.27161 35867 ft 406 kts 199°
2026-04-23 17:01 46.20297 50.25300 35862 ft 408 kts 199°
2026-04-23 17:02 46.14761 50.23436 35873 ft 409 kts 199°
2026-04-23 17:02 46.09249 50.21585 35863 ft 409 kts 199°
2026-04-23 17:03 46.03699 50.19722 35864 ft 409 kts 199°
2026-04-23 17:03 45.98189 50.17876 35871 ft 408 kts 199°
2026-04-23 17:04 45.92657 50.16027 35862 ft 408 kts 199°
2026-04-23 17:04 45.87142 50.14183 35862 ft 411 kts 199°
2026-04-23 17:05 45.81567 50.12328 35862 ft 411 kts 199°
2026-04-23 17:05 45.76018 50.10484 35862 ft 413 kts 199°
2026-04-23 17:06 45.73200 50.09551 35724 ft 412 kts 199°
2026-04-23 17:06 45.70435 50.08637 35788 ft 412 kts 199°
2026-04-23 17:06 45.64836 50.06784 35945 ft 418 kts 199°
2026-04-23 17:07 45.59213 50.04934 35868 ft 412 kts 199°
2026-04-23 17:07 45.53630 50.03098 35772 ft 413 kts 199°
2026-04-23 17:08 45.47991 50.01241 35835 ft 417 kts 199°
2026-04-23 17:08 45.42359 49.99394 36019 ft 418 kts 199°
2026-04-23 17:09 45.39538 49.98470 35908 ft 418 kts 199°
2026-04-23 17:09 45.36692 49.97541 35726 ft 414 kts 199°
2026-04-23 17:09 45.31091 49.95715 35828 ft 417 kts 199°
2026-04-23 17:10 45.25404 49.93856 35848 ft 420 kts 199°
2026-04-23 17:10 45.19724 49.92010 35841 ft 420 kts 199°
2026-04-23 17:11 45.14052 49.90172 35850 ft 419 kts 199°
2026-04-23 17:11 45.08361 49.88330 35848 ft 421 kts 199°
2026-04-23 17:12 45.02665 49.86494 35848 ft 421 kts 200°
2026-04-23 17:12 44.96968 49.84653 35834 ft 422 kts 200°
2026-04-23 17:13 44.91277 49.82822 35841 ft 421 kts 199°
2026-04-23 17:13 44.85554 49.80984 35832 ft 422 kts 199°
2026-04-23 17:14 44.79865 49.79160 35833 ft 421 kts 200°
2026-04-23 17:14 44.74159 49.77334 35830 ft 422 kts 200°
2026-04-23 17:15 44.68439 49.75508 35830 ft 422 kts 200°
2026-04-23 17:15 44.62730 49.73689 35831 ft 423 kts 200°
2026-04-23 17:16 44.56981 49.71861 35821 ft 424 kts 200°
2026-04-23 17:16 44.51248 49.70043 35817 ft 423 kts 200°
2026-04-23 17:17 44.45510 49.68225 35817 ft 423 kts 200°
2026-04-23 17:17 44.39756 49.66403 35814 ft 425 kts 200°
2026-04-23 17:18 44.31119 49.63682 35812 ft 424 kts 200°
2026-04-23 17:19 44.25368 49.61875 35810 ft 427 kts 200°
2026-04-23 17:19 44.19553 49.60050 35810 ft 426 kts 200°
2026-04-23 17:20 44.13839 49.58266 35803 ft 425 kts 200°
2026-04-23 17:21 44.02260 49.54635 35799 ft 426 kts 202°
2026-04-23 17:21 43.94582 49.49482 35798 ft 402 kts 227°
2026-04-23 17:22 43.89386 49.40762 35809 ft 387 kts 248°
2026-04-23 17:23 43.87688 49.33759 35809 ft 382 kts 260°
2026-04-23 17:23 43.87247 49.30094 35809 ft 382 kts 264°
2026-04-23 17:24 43.86975 49.19105 35818 ft 378 kts 271°
2026-04-23 17:24 43.87115 49.08205 35829 ft 376 kts 271°
2026-04-23 17:25 43.87113 48.97332 35820 ft 375 kts 270°
2026-04-23 17:26 43.87021 48.82923 35829 ft 375 kts 269°
2026-04-23 17:27 43.86938 48.72125 35824 ft 375 kts 270°
2026-04-23 17:27 43.86872 48.64888 35817 ft 375 kts 270°
2026-04-23 17:28 43.86803 48.57664 35823 ft 375 kts 270°
2026-04-23 17:28 43.86734 48.50484 35823 ft 373 kts 269°
2026-04-23 17:29 43.86655 48.43296 36015 ft 371 kts 269°
2026-04-23 17:29 43.86574 48.36178 35849 ft 371 kts 270°
2026-04-23 17:30 43.86531 48.32608 35834 ft 370 kts 269°
2026-04-23 17:30 43.86398 48.21880 35831 ft 371 kts 269°
2026-04-23 17:31 43.86305 48.14757 35841 ft 370 kts 269°
2026-04-23 17:31 43.86207 48.07608 35847 ft 371 kts 268°
2026-04-23 17:32 43.86105 48.00500 35841 ft 371 kts 268°
2026-04-23 17:32 43.85999 47.93417 35844 ft 370 kts 268°
2026-04-23 17:33 43.85886 47.86307 35850 ft 370 kts 268°
2026-04-23 17:33 43.85770 47.79210 35851 ft 372 kts 268°
2026-04-23 17:34 43.85650 47.72059 35859 ft 369 kts 268°
2026-04-23 17:35 43.85459 47.61455 35860 ft 371 kts 268°
2026-04-23 17:35 43.85268 47.50889 35857 ft 367 kts 268°
2026-04-23 17:36 43.85128 47.43759 35860 ft 369 kts 269°
2026-04-23 17:36 43.84985 47.36709 35868 ft 367 kts 268°
2026-04-23 17:37 43.84912 47.33165 35698 ft 367 kts 268°
2026-04-23 17:37 43.84839 47.29637 35792 ft 367 kts 268°
2026-04-23 17:38 43.84609 47.18953 36074 ft 374 kts 268°
2026-04-23 17:38 43.84530 47.15340 35954 ft 371 kts 268°
2026-04-23 17:38 43.84452 47.11846 35778 ft 361 kts 267°
2026-04-23 17:39 43.84292 47.04865 35864 ft 367 kts 267°
2026-04-23 17:39 43.84124 46.97738 35868 ft 371 kts 267°
2026-04-23 17:40 43.83957 46.90640 35881 ft 370 kts 268°
2026-04-23 17:40 43.83785 46.83518 35871 ft 370 kts 268°
2026-04-23 17:41 43.83604 46.76459 35883 ft 369 kts 267°
2026-04-23 17:41 43.84008 46.65870 35876 ft 370 kts 275°
2026-04-23 17:42 43.85215 46.55311 35870 ft 370 kts 276°
2026-04-23 17:43 43.86004 46.48303 35871 ft 371 kts 276°
2026-04-23 17:43 43.86781 46.41260 35872 ft 370 kts 276°
2026-04-23 17:44 43.87549 46.34182 35880 ft 370 kts 275°
2026-04-23 17:44 43.88672 46.23732 35874 ft 367 kts 275°
2026-04-23 17:45 43.89790 46.13155 35882 ft 368 kts 275°
2026-04-23 17:46 43.90896 46.02630 35883 ft 369 kts 275°
2026-04-23 17:46 43.91628 45.95635 35882 ft 368 kts 275°
2026-04-23 17:47 43.92323 45.88621 35875 ft 368 kts 272°
2026-04-23 17:48 43.92601 45.78015 35882 ft 369 kts 269°
2026-04-23 17:48 43.92690 45.70927 35892 ft 367 kts 269°
2026-04-23 17:49 43.92812 45.63869 35895 ft 367 kts 269°
2026-04-23 17:49 43.92947 45.56754 35894 ft 368 kts 270°
2026-04-23 17:50 43.93088 45.49683 35895 ft 367 kts 270°
2026-04-23 17:50 43.93289 45.38999 35894 ft 369 kts 269°
2026-04-23 17:51 43.93414 45.31870 35896 ft 369 kts 268°
2026-04-23 17:52 43.93596 45.21238 35891 ft 370 kts 268°
2026-04-23 17:52 43.93771 45.10624 35884 ft 368 kts 268°
2026-04-23 17:53 43.93935 44.99961 35874 ft 368 kts 268°
2026-04-23 17:54 43.94038 44.92852 35879 ft 368 kts 268°
2026-04-23 17:54 43.94183 44.82231 35871 ft 369 kts 268°
2026-04-23 17:55 43.94320 44.71608 35874 ft 369 kts 268°
2026-04-23 17:56 43.94404 44.64520 35875 ft 369 kts 268°
2026-04-23 17:56 43.94522 44.53890 35871 ft 369 kts 268°
2026-04-23 17:57 43.94598 44.46821 35871 ft 368 kts 267°
2026-04-23 17:58 43.94702 44.36232 35873 ft 368 kts 267°
2026-04-23 17:58 43.94767 44.29138 35874 ft 367 kts 267°
2026-04-23 17:59 43.94826 44.22074 35872 ft 369 kts 266°
2026-04-23 17:59 43.94879 44.14933 35868 ft 370 kts 266°
2026-04-23 18:00 43.94929 44.07821 35866 ft 370 kts 266°
2026-04-23 18:00 43.94978 44.00719 35861 ft 370 kts 266°
2026-04-23 18:01 43.95021 43.93603 35848 ft 369 kts 266°
2026-04-23 18:01 43.95058 43.86472 35842 ft 370 kts 266°
2026-04-23 18:02 43.95090 43.79328 35855 ft 372 kts 266°
2026-04-23 18:02 43.95120 43.72194 35858 ft 368 kts 266°
2026-04-23 18:03 43.95143 43.65149 35840 ft 367 kts 266°
2026-04-23 18:03 43.95158 43.58068 36035 ft 371 kts 266°
2026-04-23 18:03 43.95168 43.54511 35921 ft 365 kts 266°
2026-04-23 18:04 43.95178 43.51016 35886 ft 360 kts 266°
2026-04-23 18:04 43.95190 43.44101 35883 ft 364 kts 266°
2026-04-23 18:05 43.95194 43.37053 35869 ft 366 kts 266°
2026-04-23 18:05 43.95193 43.30029 35875 ft 365 kts 266°
2026-04-23 18:06 43.95193 43.23043 35859 ft 363 kts 266°
2026-04-23 18:06 43.95184 43.16033 35853 ft 366 kts 265°
2026-04-23 18:07 43.95172 43.09011 35835 ft 365 kts 265°
2026-04-23 18:07 43.95159 43.01973 35858 ft 366 kts 266°
2026-04-23 18:08 43.95149 42.96081 35836 ft 366 kts 266°
2026-04-23 18:08 43.95124 42.87915 35844 ft 363 kts 266°
2026-04-23 18:09 43.95097 42.80920 35831 ft 363 kts 265°
2026-04-23 18:09 43.95065 42.73945 35824 ft 363 kts 265°
2026-04-23 18:10 43.95027 42.66979 35811 ft 361 kts 266°
2026-04-23 18:10 43.94971 42.60038 35805 ft 361 kts 264°
2026-04-23 18:11 43.94787 42.53138 35815 ft 359 kts 264°
2026-04-23 18:11 43.94570 42.46249 35809 ft 359 kts 264°
2026-04-23 18:12 43.94365 42.39390 35805 ft 356 kts 264°
2026-04-23 18:12 43.94160 42.32536 35812 ft 359 kts 264°
2026-04-23 18:13 43.93956 42.25668 35802 ft 355 kts 264°
2026-04-23 18:13 43.93749 42.18795 35798 ft 356 kts 263°
2026-04-23 18:14 43.93533 42.11933 35816 ft 354 kts 264°
2026-04-23 18:14 43.93316 42.05145 35815 ft 352 kts 263°
2026-04-23 18:15 43.93093 41.98366 35814 ft 354 kts 264°
2026-04-23 18:15 43.92874 41.91555 35811 ft 355 kts 264°
2026-04-23 18:16 43.92651 41.84757 35817 ft 354 kts 263°
2026-04-23 18:16 43.92418 41.77914 35817 ft 356 kts 263°
2026-04-23 18:17 43.92068 41.67647 35819 ft 357 kts 263°
2026-04-23 18:17 43.91821 41.60735 35819 ft 361 kts 264°
2026-04-23 18:18 43.91571 41.53807 35810 ft 359 kts 262°
2026-04-23 18:18 43.91309 41.46898 35799 ft 360 kts 263°
2026-04-23 18:19 43.91037 41.39983 35814 ft 361 kts 263°
2026-04-23 18:19 43.90757 41.33019 35798 ft 365 kts 263°
2026-04-23 18:20 43.90483 41.26075 35795 ft 361 kts 263°
2026-04-23 18:20 43.90342 41.22604 35681 ft 358 kts 262°
2026-04-23 18:20 43.90204 41.19214 35357 ft 355 kts 262°
2026-04-23 18:21 43.90064 41.15778 34874 ft 356 kts 262°
2026-04-23 18:21 43.89926 41.12391 34251 ft 359 kts 262°
2026-04-23 18:21 43.89784 41.08945 33739 ft 355 kts 261°
2026-04-23 18:21 43.89646 41.05600 33280 ft 351 kts 261°
2026-04-23 18:22 43.89511 41.02258 32830 ft 345 kts 261°
2026-04-23 18:22 43.89373 40.98938 32405 ft 339 kts 260°
2026-04-23 18:22 43.89232 40.95700 31993 ft 333 kts 260°
2026-04-23 18:22 43.89091 40.92542 31564 ft 328 kts 260°
2026-04-23 18:23 43.88999 40.90495 31299 ft 324 kts 259°
2026-04-23 18:23 43.88692 40.83382 30330 ft 311 kts 260°
2026-04-23 18:24 43.88438 40.77509 29554 ft 301 kts 258°
2026-04-23 18:24 43.88297 40.74611 29154 ft 307 kts 259°
2026-04-23 18:24 43.88050 40.71715 28759 ft 305 kts 255°
2026-04-23 18:25 43.86740 40.66331 27989 ft 288 kts 244°
2026-04-23 18:25 43.85907 40.63848 27630 ft 289 kts 242°
2026-04-23 18:25 43.85060 40.61291 27251 ft 295 kts 244°
2026-04-23 18:25 43.84228 40.58714 26871 ft 291 kts 243°
2026-04-23 18:26 43.83422 40.56189 26497 ft 285 kts 243°
2026-04-23 18:26 43.82632 40.53709 26130 ft 281 kts 244°
2026-04-23 18:26 43.81844 40.51238 25769 ft 286 kts 244°
2026-04-23 18:26 43.81033 40.48704 25395 ft 291 kts 244°
2026-04-23 18:27 43.80214 40.46161 25032 ft 288 kts 244°
2026-04-23 18:27 43.79417 40.43659 24643 ft 282 kts 243°
2026-04-23 18:27 43.78636 40.41199 24280 ft 276 kts 244°
2026-04-23 18:27 43.77868 40.38795 23931 ft 274 kts 244°
2026-04-23 18:28 43.77081 40.36344 23563 ft 284 kts 243°
2026-04-23 18:28 43.76277 40.33852 23194 ft 286 kts 243°
2026-04-23 18:28 43.75485 40.31379 22822 ft 281 kts 243°
2026-04-23 18:28 43.74707 40.28936 22463 ft 277 kts 244°
2026-04-23 18:29 43.73925 40.26487 22096 ft 277 kts 244°
2026-04-23 18:29 43.73133 40.24028 21721 ft 284 kts 244°
2026-04-23 18:29 43.72335 40.21558 21361 ft 281 kts 244°
2026-04-23 18:29 43.71550 40.19117 20999 ft 276 kts 244°
2026-04-23 18:30 43.70770 40.16708 20650 ft 275 kts 244°
2026-04-23 18:30 43.69964 40.14317 20298 ft 282 kts 242°
2026-04-23 18:30 43.68887 40.12044 19933 ft 283 kts 231°
2026-04-23 18:30 43.67430 40.10250 19717 ft 278 kts 220°
2026-04-23 18:31 43.65781 40.08889 19355 ft 281 kts 213°
2026-04-23 18:31 43.63978 40.07686 18966 ft 290 kts 211°
2026-04-23 18:31 43.62130 40.06540 18580 ft 291 kts 210°
2026-04-23 18:31 43.60299 40.05423 18203 ft 287 kts 210°
2026-04-23 18:32 43.58503 40.04333 17920 ft 279 kts 211°
2026-04-23 18:32 43.56746 40.03241 17398 ft 280 kts 211°
2026-04-23 18:32 43.54995 40.02110 16886 ft 282 kts 210°
2026-04-23 18:32 43.53231 40.00943 16559 ft 277 kts 212°
2026-04-23 18:33 43.51481 39.99838 16195 ft 279 kts 211°
2026-04-23 18:33 43.49697 39.98769 15941 ft 282 kts 209°
2026-04-23 18:33 43.47894 39.97679 15947 ft 284 kts 209°
2026-04-23 18:33 43.46080 39.96559 15960 ft 290 kts 211°
2026-04-23 18:34 43.44202 39.95471 15906 ft 290 kts 207°
2026-04-23 18:34 43.42319 39.94596 15621 ft 287 kts 204°
2026-04-23 18:34 43.40425 39.93772 15105 ft 288 kts 204°
2026-04-23 18:34 43.38501 39.92939 14433 ft 294 kts 204°
2026-04-23 18:35 43.36560 39.92079 13929 ft 294 kts 204°
2026-04-23 18:35 43.34634 39.91211 13518 ft 292 kts 204°
2026-04-23 18:35 43.32703 39.90332 13053 ft 291 kts 204°
2026-04-23 18:35 43.30793 39.89463 12654 ft 288 kts 203°
2026-04-23 18:36 43.28891 39.88599 12171 ft 288 kts 203°
2026-04-23 18:36 43.26998 39.87727 11709 ft 287 kts 203°
2026-04-23 18:36 43.25113 39.86864 11231 ft 288 kts 202°
2026-04-23 18:36 43.23229 39.86013 10855 ft 284 kts 202°
2026-04-23 18:37 43.21351 39.85170 10639 ft 276 kts 202°
2026-04-23 18:37 43.19574 39.84370 10506 ft 265 kts 202°
2026-04-23 18:37 43.17841 39.83586 10247 ft 260 kts 202°
2026-04-23 18:37 43.16140 39.82813 9868 ft 260 kts 202°
2026-04-23 18:38 43.14412 39.82033 9484 ft 260 kts 201°
2026-04-23 18:38 43.12708 39.81272 9119 ft 259 kts 201°
2026-04-23 18:38 43.11012 39.80518 8941 ft 251 kts 201°
2026-04-23 18:38 43.09386 39.79792 8913 ft 238 kts 202°
2026-04-23 18:39 43.07868 39.79091 8848 ft 226 kts 204°
2026-04-23 18:39 43.06472 39.78173 8527 ft 223 kts 220°
2026-04-23 18:39 43.05505 39.76588 8198 ft 219 kts 246°
2026-04-23 18:39 43.05080 39.74584 7871 ft 220 kts 262°
2026-04-23 18:40 43.05057 39.72519 7548 ft 221 kts 279°
2026-04-23 18:40 43.05645 39.70599 7234 ft 223 kts 305°
2026-04-23 18:40 43.06746 39.69121 7015 ft 221 kts 322°
2026-04-23 18:40 43.08121 39.68149 7009 ft 226 kts 342°
2026-04-23 18:41 43.09700 39.68048 7006 ft 233 kts
2026-04-23 18:41 43.11216 39.68793 6946 ft 231 kts 27°
2026-04-23 18:41 43.12546 39.70052 6586 ft 234 kts 34°
2026-04-23 18:41 43.13870 39.71325 6275 ft 232 kts 32°
2026-04-23 18:42 43.15228 39.72519 5951 ft 232 kts 30°
2026-04-23 18:42 43.16567 39.73743 5655 ft 231 kts 37°
2026-04-23 18:42 43.17792 39.75124 5384 ft 229 kts 36°
2026-04-23 18:42 43.19109 39.76337 5142 ft 224 kts 29°
2026-04-23 18:43 43.20439 39.77356 4930 ft 218 kts 26°
2026-04-23 18:43 43.21769 39.78322 4700 ft 212 kts 26°
2026-04-23 18:43 43.23043 39.79260 4491 ft 206 kts 27°
2026-04-23 18:43 43.24282 39.80184 4277 ft 201 kts 27°
2026-04-23 18:44 43.25509 39.81095 4008 ft 199 kts 26°
2026-04-23 18:44 43.26724 39.81997 3744 ft 197 kts 26°
2026-04-23 18:44 43.27915 39.82883 3487 ft 195 kts 27°
2026-04-23 18:44 43.29091 39.83759 3232 ft 190 kts 27°
2026-04-23 18:45 43.30238 39.84614 3000 ft 183 kts 27°
2026-04-23 18:45 43.31331 39.85429 2738 ft 173 kts 27°
2026-04-23 18:45 43.32368 39.86201 2518 ft 170 kts 27°
2026-04-23 18:45 43.33416 39.86982 2289 ft 170 kts 27°
2026-04-23 18:46 43.34448 39.87752 2063 ft 169 kts 27°
2026-04-23 18:46 43.35487 39.88527 1842 ft 168 kts 27°
2026-04-23 18:46 43.36497 39.89281 1612 ft 165 kts 28°
2026-04-23 18:46 43.37485 39.90020 1407 ft 157 kts 28°
2026-04-23 18:47 43.38436 39.90729 1190 ft 154 kts 28°
2026-04-23 18:47 43.39371 39.91428 992 ft 152 kts 28°
2026-04-23 18:47 43.40292 39.92116 854 ft 149 kts 28°
2026-04-23 18:47 43.41220 39.92806 640 ft 152 kts 28°
2026-04-23 18:48 43.42137 39.93489 407 ft 150 kts 29°
2026-04-23 18:48 43.43047 39.94168 165 ft 146 kts 29°
2026-04-23 18:48 43.43907 39.94820 48 ft 127 kts 30°
2026-04-23 18:48 43.44485 39.95253 56 ft 59 kts 28°
2026-04-23 18:49 43.44718 39.95429 60 ft 29 kts 29°
2026-04-23 18:49 43.44889 39.95557 63 ft 25 kts 28°
2026-04-23 18:49 43.44975 39.95569 64 ft 11 kts 331°
2026-04-23 18:49 43.45038 39.95525 65 ft 3 kts 333°
2026-04-23 18:50 43.45050 39.95516 65 ft 2 kts 323°
2026-04-23 18:50 43.45050 39.95447 64 ft 10 kts 252°
2026-04-23 18:50 43.45014 39.95333 61 ft 14 kts 244°
2026-04-23 18:50 43.44968 39.95198 58 ft 16 kts 245°
2026-04-23 18:51 43.44917 39.95063 57 ft 15 kts 246°
2026-04-23 18:51 43.44868 39.94919 54 ft 16 kts 245°
2026-04-23 18:51 43.44819 39.94778 54 ft 16 kts 245°
2026-04-23 18:51 43.44776 39.94649 53 ft 14 kts 245°
2026-04-23 18:52 43.44733 39.94524 52 ft 14 kts 245°
2026-04-23 18:52 43.44699 39.94425 52 ft 10 kts 244°
2026-04-23 18:52 43.44713 39.94367 53 ft 6 kts 334°
2026-04-23 18:52 43.44741 39.94349 54 ft 3 kts 334°
2026-04-23 18:53 43.44759 39.94336 55 ft 3 kts 334°
2026-04-23 18:53 43.44773 39.94327 55 ft 1 kts 334°
2026-04-23 18:53 43.44786 39.94319 56 ft 1 kts 332°
2026-04-23 18:53 43.44792 39.94315 56 ft 0 kts 333°
2026-04-23 18:54 43.44792 39.94314 56 ft 0 kts 333°